GFSSE_prec_cthk_132.txt.gz
RH
81 84 87 88 88 89 87 88 83 81 80 79 76 77 68 57 57 63 60 60 57 58 58 47 38 45 54 56 54 52 48 45 43 43 46 50 56 57 54 48 50 54 51
77 76 86 86 85 84 85 82 84 83 82 78 73 61 55 62 64 66 62 48 50 51 46 50 56 69 69 60 50 46 43 41 44 41 45 48 49 46 40 45 43 44 44
74 72 75 79 80 81 81 82 82 83 81 79 70 66 66 66 67 64 52 54 61 62 61 61 71 73 66 55 50 51 47 43 38 39 40 39 36 32 31 35 34 36 39
69 71 73 79 80 81 82 79 80 83 78 76 73 71 67 66 63 61 67 70 70 69 72 69 66 61 59 57 57 57 57 44 37 35 31 29 29 26 24 25 26 26 27
68 70 71 77 78 81 81 82 80 77 75 72 70 65 62 61 63 69 70 72 78 75 66 60 52 53 57 55 55 54 51 34 30 30 28 29 26 26 27 26 22 23 24
64 66 69 72 79 81 80 81 81 79 72 71 71 70 66 60 60 62 61 62 61 55 47 43 41 44 45 50 55 44 36 32 31 31 28 29 29 29 25 25 25 26 28
59 64 64 62 72 75 75 79 79 75 66 66 70 78 73 64 63 62 57 56 54 41 35 36 35 35 36 44 41 31 35 33 33 32 32 31 30 30 31 34 36 39 40
58 60 66 67 66 69 74 77 74 62 56 64 69 75 74 70 68 62 57 49 38 31 32 30 28 30 34 35 34 37 35 36 35 35 34 34 37 35 33 33 34 37 39
54 58 62 63 68 73 76 76 67 56 55 53 58 69 64 62 61 60 55 41 30 27 25 24 26 32 37 37 40 42 39 40 41 40 35 33 33 34 35 37 39 41 44
54 56 60 61 65 70 69 62 57 51 45 48 47 54 59 65 68 61 47 34 27 22 21 22 28 31 37 39 40 41 42 42 43 41 35 33 35 38 40 40 41 41 41
59 58 65 62 64 68 69 62 57 53 47 48 46 48 58 59 60 58 40 30 31 28 30 34 34 35 37 39 41 42 42 41 39 36 35 36 37 38 40 43 47 51 54
75 62 65 63 65 66 63 59 60 55 50 47 45 45 50 56 54 47 36 33 37 39 45 46 43 39 39 39 41 43 43 40 36 36 36 37 39 43 47 50 53 58 63
73 75 69 70 68 65 59 58 64 64 64 58 50 44 44 52 50 43 43 38 34 39 45 45 44 45 45 46 43 42 39 36 36 35 35 38 43 47 52 55 58 62 63
72 78 69 79 68 64 67 69 68 69 66 62 55 43 42 49 49 45 44 44 42 45 43 43 46 46 46 46 44 37 34 34 34 32 34 39 46 51 55 58 59 60 65
68 71 68 71 71 71 71 74 72 62 60 57 55 51 42 49 48 45 42 48 45 44 45 46 48 48 48 43 38 35 32 34 32 30 36 42 48 53 56 58 61 68 73
62 62 66 70 75 80 81 67 69 63 59 59 55 53 45 45 48 48 46 47 47 40 42 46 47 47 44 38 36 32 32 33 33 36 41 45 48 54 56 61 70 78 81
58 59 65 67 73 74 76 61 66 63 61 63 65 61 48 43 51 49 43 40 42 42 41 45 46 44 39 30 28 28 30 31 32 38 44 48 55 53 52 53 66 77 81
58 58 59 59 65 70 66 72 67 62 63 65 68 57 48 44 48 45 46 37 38 39 44 47 43 40 36 39 35 30 31 32 31 39 39 42 48 51 55 56 60 67 79
54 55 57 56 60 67 64 60 71 64 69 69 68 55 50 43 48 47 42 41 37 38 43 42 42 39 36 39 42 43 39 38 37 34 42 45 46 47 54 58 59 66 78
51 52 59 55 55 59 59 70 67 68 67 70 66 52 49 43 45 48 42 39 38 41 45 49 44 41 38 35 37 43 43 42 45 39 47 53 61 63 64 66 67 65 73
49 52 54 59 56 56 60 75 71 72 68 68 57 49 44 40 48 57 45 33 38 40 42 43 45 44 39 39 37 40 40 43 44 46 52 57 63 67 66 69 72 69 69
46 48 50 54 55 54 58 58 66 62 68 67 59 55 51 46 43 51 55 37 33 41 38 39 44 44 44 44 47 47 56 59 59 60 64 68 70 73 74 71 71 71 70
52 45 44 49 51 55 56 58 60 64 67 70 71 59 53 47 43 50 58 51 36 43 45 47 46 47 49 51 53 58 55 53 62 69 66 60 66 66 73 74 63 66 65
53 48 44 46 47 51 57 57 62 67 61 59 61 53 48 46 45 55 52 52 47 47 53 52 55 48 51 55 58 54 58 61 66 67 59 61 58 64 68 71 75 71 72
56 50 44 40 47 51 50 58 73 61 67 66 59 50 48 47 46 45 52 52 61 55 57 56 51 52 58 61 60 56 54 52 59 62 58 51 54 53 55 60 64 68 63
59 55 47 42 38 45 50 49 61 62 66 60 53 49 48 45 45 45 46 47 46 61 48 49 51 50 52 51 51 51 51 50 58 52 49 46 44 46 47 52 47 54 57

GFSSE_prec_cthk_138.txt.gz
RH
79 84 89 90 86 87 82 81 82 84 78 78 82 86 87 86 88 79 69 68 65 69 65 57 55 57 56 56 52 46 44 44 44 46 56 56 57 53 50 55 55 59 55
78 84 91 94 91 89 84 80 81 86 84 83 82 85 87 79 70 62 64 62 63 63 53 48 62 71 59 51 46 49 47 50 49 52 50 45 45 48 43 48 53 51 50
79 82 93 95 96 93 85 79 81 82 85 83 80 76 60 62 64 63 54 58 58 57 57 75 79 63 53 46 46 44 42 42 45 44 38 33 35 37 37 42 43 45 46
75 80 92 94 96 96 92 84 83 83 85 80 69 61 65 69 59 51 54 60 62 65 75 78 68 57 57 56 55 43 32 31 31 30 27 26 27 29 31 31 34 35 36
76 80 86 88 92 95 94 90 88 92 88 80 76 74 72 64 62 69 76 75 74 72 79 66 62 60 59 54 45 36 30 27 27 25 24 24 24 23 24 25 27 30 33
77 79 81 89 90 89 89 93 92 94 90 86 78 72 69 74 78 79 79 80 77 73 61 58 55 61 57 52 33 31 29 29 28 26 27 28 31 32 35 33 34 36 35
74 81 84 86 87 86 88 91 94 94 89 87 76 73 75 78 76 83 85 76 66 57 47 55 60 59 46 45 35 31 32 30 31 33 36 37 38 39 39 39 40 43 45
74 86 88 88 88 86 88 91 94 91 89 87 75 69 73 72 69 66 67 60 40 40 41 41 45 47 37 34 33 35 38 37 38 36 36 38 41 39 42 43 43 45 48
66 78 84 86 89 86 85 85 84 81 83 83 76 76 78 71 65 59 45 34 35 34 31 32 34 32 34 35 38 44 49 44 41 40 38 39 40 41 41 43 50 56 58
61 66 74 81 81 81 77 73 65 70 79 83 82 80 73 59 50 46 37 32 29 26 29 33 35 36 38 39 41 43 44 40 40 42 40 40 41 44 50 57 62 64 66
58 64 65 72 79 81 82 72 67 71 78 83 77 73 66 57 51 42 35 25 24 26 30 34 36 37 38 39 41 41 41 40 40 41 41 43 47 53 57 61 60 65 73
59 61 68 72 73 71 68 68 63 65 68 68 65 66 68 57 50 41 33 29 29 33 34 34 34 35 37 38 38 37 36 38 38 39 41 46 50 53 56 58 65 76 75
60 61 65 70 75 65 57 52 47 51 55 57 60 66 68 58 52 46 42 40 43 43 38 38 37 39 40 39 37 33 33 34 36 38 42 46 50 52 55 61 68 72 69
62 63 67 68 70 68 59 55 51 49 49 52 57 61 56 55 51 47 43 40 44 43 38 40 42 42 42 40 32 30 32 32 33 36 42 48 52 55 58 63 68 70 77
63 65 67 67 67 66 62 60 56 56 53 49 52 56 51 47 48 45 41 38 40 39 40 41 41 41 40 33 30 31 30 30 33 37 43 48 50 53 57 61 67 72 82
68 71 71 70 69 66 65 67 66 64 58 48 44 50 50 51 48 44 40 37 40 38 39 42 42 40 36 32 31 32 30 31 35 37 40 44 47 51 56 59 62 64 68
66 68 72 72 69 71 74 71 67 62 58 52 50 44 47 52 48 45 39 38 42 42 40 42 41 35 30 26 27 29 29 31 35 37 39 43 48 50 54 57 61 66 68
62 65 69 73 74 74 70 73 67 59 58 55 55 50 46 46 45 45 43 45 42 41 40 41 40 36 31 27 29 28 28 28 31 34 36 42 44 52 60 67 72 70 70
61 61 62 70 70 72 67 70 70 61 61 60 58 52 45 44 47 42 43 43 41 38 39 39 39 38 34 31 32 32 30 31 31 35 41 46 50 57 66 74 76 74 73
59 58 61 61 68 66 65 66 67 62 61 65 63 56 47 47 48 48 43 39 40 37 38 39 40 39 37 35 34 36 37 35 36 38 43 49 52 65 70 69 70 73 72
59 58 58 60 60 62 62 63 63 65 65 64 69 64 52 47 45 44 44 45 40 38 40 40 40 38 37 36 36 40 44 48 47 48 53 57 66 65 64 68 71 69 71
52 53 56 57 57 61 61 62 61 63 62 68 71 63 51 48 46 44 46 45 41 39 41 45 44 40 43 41 43 45 47 50 52 52 57 60 58 63 62 63 70 66 66
51 49 53 56 57 57 63 62 62 63 65 66 68 58 51 43 43 48 49 45 42 40 42 47 49 48 45 46 50 52 54 55 53 54 55 52 55 55 54 56 62 66 62
54 51 49 53 54 56 60 59 58 61 64 63 64 55 52 47 42 51 57 50 44 41 47 52 50 48 50 53 57 56 54 56 56 54 50 48 47 42 43 40 52 56 55
57 54 49 50 51 53 54 55 57 57 63 65 62 60 57 53 47 44 56 63 55 43 44 53 53 52 52 58 59 54 55 52 50 50 46 47 41 36 38 33 40 42 46
68 60 52 50 50 50 52 55 55 59 62 62 63 67 61 58 50 45 50 64 62 56 49 50 57 60 55 58 57 60 57 53 47 47 42 41 38 39 37 39 43 43 45

GFSSE_prec_cthk_141.txt.gz
RH
80 87 87 88 84 80 77 78 79 75 78 83 83 85 89 89 88 78 70 67 71 73 69 59 60 53 53 50 43 40 40 41 44 52 53 52 49 47 51 53 56 58 53
78 83 90 89 86 82 77 79 82 81 82 84 85 88 88 89 78 72 69 66 68 62 50 55 62 58 51 44 45 43 46 48 55 53 46 46 44 40 44 45 46 49 45
77 82 91 92 88 86 80 79 85 87 87 84 89 92 87 70 66 65 63 65 67 49 61 74 64 58 46 43 42 40 42 45 45 37 32 38 38 36 38 42 41 42 44
79 84 89 93 91 91 85 82 85 90 87 89 79 64 61 67 64 59 59 57 55 66 79 72 56 52 54 51 39 31 31 31 30 27 30 32 33 32 34 34 35 34 34
78 84 93 96 96 93 89 86 86 88 89 80 70 69 67 60 57 59 63 65 68 76 70 61 58 57 54 44 34 29 27 27 23 22 22 22 27 23 25 27 29 30 32
81 81 90 93 94 95 94 91 90 89 88 79 77 74 66 70 77 84 82 74 72 69 57 55 59 61 56 33 29 29 27 26 24 24 26 29 33 32 30 30 32 34 34
80 82 87 90 91 91 91 90 90 91 86 81 80 74 78 84 85 86 85 76 65 50 54 56 59 53 39 34 32 31 28 27 29 32 33 36 36 36 38 38 37 38 40
83 84 85 86 87 88 92 90 92 93 89 83 82 77 77 80 84 80 69 54 42 44 50 51 53 38 35 32 34 37 37 34 33 31 32 35 37 35 37 40 48 52 54
84 86 86 85 86 90 89 90 94 91 89 84 81 75 73 69 64 62 46 36 37 37 35 38 39 32 32 37 42 43 40 36 34 33 33 34 37 45 52 56 59 63 67
80 83 86 86 86 88 85 83 89 92 90 87 89 82 71 61 54 38 33 34 31 29 30 33 33 34 37 40 42 42 37 35 36 34 35 43 50 52 53 59 66 72 76
66 75 82 82 83 86 83 81 84 91 95 88 82 75 61 50 40 38 31 27 25 28 32 33 38 38 39 39 38 38 36 37 36 38 43 47 49 52 58 65 70 72 70
64 67 72 75 81 82 79 74 78 82 90 77 76 68 57 51 43 35 25 23 26 31 32 35 38 38 39 38 37 36 37 36 36 40 47 49 52 55 59 67 73 80 71
59 65 69 70 71 76 71 67 66 72 70 67 63 63 56 52 46 37 34 34 38 36 34 35 35 38 39 38 35 34 34 35 36 42 48 51 53 55 59 67 76 78 84
58 62 65 68 64 59 60 61 58 60 59 59 62 66 59 53 48 42 39 40 41 36 34 35 40 42 41 37 31 32 32 34 36 41 45 50 53 56 59 66 70 74 68
60 64 65 66 65 57 51 47 47 49 52 53 58 57 57 56 48 41 38 41 41 36 37 40 42 43 39 32 29 30 30 32 35 40 44 48 52 55 59 64 67 68 72
62 66 63 65 64 61 55 51 50 49 49 50 54 50 47 50 47 42 38 39 38 38 39 41 44 43 37 30 30 30 30 33 36 38 42 47 51 57 64 66 70 71 70
65 69 69 67 65 61 62 59 60 55 50 44 47 48 47 48 45 41 36 37 39 37 41 41 41 38 32 28 29 29 31 34 36 38 42 45 50 58 64 70 79 80 75
64 68 71 70 66 66 68 66 62 57 53 49 48 45 49 48 43 40 36 37 39 39 41 40 38 35 30 27 28 29 30 31 34 34 39 45 53 59 70 77 79 78 77
58 61 66 70 71 72 70 70 63 56 53 52 52 49 46 47 42 42 40 42 39 41 41 41 38 36 34 32 31 31 32 34 35 41 47 53 60 68 70 72 71 73 71
57 58 62 67 67 68 66 69 67 61 59 56 54 49 45 43 41 39 39 39 41 40 40 40 41 40 38 36 39 41 41 43 44 46 55 58 61 70 66 69 74 72 70
57 55 57 58 64 65 64 66 67 62 62 66 61 51 44 43 43 43 39 35 35 40 39 40 41 41 41 40 43 41 41 45 48 52 56 60 65 65 63 63 63 66 65
53 55 55 55 57 60 63 63 63 65 64 64 65 61 51 46 41 40 38 39 38 38 39 41 41 44 43 44 43 43 47 49 52 55 56 58 59 60 55 53 55 61 64
50 51 51 54 55 57 61 62 62 64 65 64 68 65 57 47 43 41 39 41 41 38 39 43 47 45 48 49 50 52 52 55 57 54 56 54 53 52 45 43 46 52 52
48 49 50 53 55 57 59 59 62 63 65 67 67 64 51 45 43 39 41 43 43 40 38 44 46 52 50 53 54 56 56 53 54 56 52 50 50 45 39 39 37 44 45
54 51 47 49 52 55 58 59 58 61 64 64 65 62 52 47 45 41 50 48 49 42 44 46 51 50 49 52 55 58 53 53 55 50 49 47 46 43 41 40 40 47 45
53 56 49 48 50 52 54 55 56 58 62 65 64 62 57 55 51 47 45 51 56 55 44 42 49 55 55 54 54 58 58 61 59 51 47 45 41 42 44 45 44 47 55

GFSSE_prec_cthk_144.txt.gz
RH
86 85 83 83 81 77 77 80 77 74 79 83 90 89 89 87 82 74 68 68 69 71 58 59 51 52 49 43 40 41 42 42 48 53 55 54 55 59 59 63 74 59 56
84 89 84 86 81 78 75 79 78 77 81 85 88 87 91 91 81 72 65 64 67 51 50 53 52 46 42 43 43 42 45 50 52 50 53 48 47 47 50 49 58 48 47
81 86 84 87 85 79 77 81 83 85 85 88 88 91 90 73 64 63 67 70 52 51 64 62 51 44 41 41 39 42 46 45 39 36 42 49 43 38 44 43 43 45 44
81 84 90 89 87 81 80 82 86 88 87 87 88 86 70 66 63 63 62 59 56 73 71 52 48 50 45 37 31 30 29 28 26 31 43 43 37 30 30 32 32 33 35
79 84 87 91 90 86 85 84 87 88 89 84 75 68 68 62 58 57 60 62 71 74 59 57 54 51 41 32 27 25 25 22 23 30 30 32 31 22 23 25 29 31 34
79 86 91 92 90 90 88 84 86 89 86 81 77 73 65 60 60 70 70 69 77 59 56 56 61 46 30 26 25 25 23 24 31 34 34 32 37 29 29 31 35 31 31
82 86 94 95 94 95 96 92 89 89 82 80 78 72 68 74 81 84 74 76 60 52 54 58 54 35 30 28 26 25 24 26 36 36 39 41 32 34 35 37 38 39 40
85 87 92 95 94 93 93 90 92 91 84 82 78 82 81 85 86 84 77 62 45 51 52 50 40 32 28 30 32 32 30 31 38 36 38 45 39 43 49 54 58 62 63
87 88 89 93 92 85 87 88 93 89 82 81 84 82 83 83 74 68 47 39 41 39 42 41 31 29 31 36 39 35 34 34 40 38 46 53 46 50 56 60 65 69 77
88 89 90 92 85 85 88 90 91 88 83 86 86 84 69 64 58 39 36 37 32 30 32 29 29 32 37 39 39 35 34 37 47 47 50 50 51 56 61 66 71 73 75
88 88 88 84 80 81 86 92 94 89 87 89 89 82 76 66 47 41 35 29 28 29 31 31 31 34 36 36 36 35 37 46 49 52 55 51 54 57 61 69 76 73 71
80 82 81 85 87 83 86 90 91 89 87 87 85 68 62 52 50 39 27 25 29 32 33 33 33 34 37 44 40 37 43 43 49 53 55 51 54 58 61 67 73 71 74
70 74 73 79 81 81 83 87 91 90 87 85 80 71 64 55 46 39 31 37 38 35 41 38 37 40 39 41 42 43 40 44 49 50 50 51 53 56 60 66 71 70 73
67 72 72 73 81 78 79 80 85 83 83 77 77 67 61 59 46 41 40 41 41 40 37 38 43 38 37 34 40 42 41 47 46 51 50 52 54 59 62 64 70 76 77
63 69 72 69 67 73 72 70 74 73 72 74 76 72 65 57 46 43 39 43 39 40 42 44 44 42 37 33 35 35 39 43 45 49 54 50 53 56 60 70 74 76 77
65 69 70 70 63 60 63 64 58 64 66 69 67 68 63 54 46 41 39 43 43 43 44 45 46 46 40 38 35 35 38 42 44 46 50 49 48 56 65 74 79 80 75
66 68 67 65 67 60 56 52 59 58 60 62 60 55 55 51 44 38 38 43 41 40 41 45 46 43 40 34 34 34 38 42 45 44 47 53 57 59 71 76 75 76 73
66 68 67 69 66 63 63 58 61 59 58 55 55 53 46 45 43 38 41 44 41 41 44 46 45 46 38 35 37 38 37 38 39 42 48 56 61 68 74 74 72 71 69
64 67 68 68 67 65 68 66 63 56 54 55 53 52 46 44 41 40 42 46 40 43 44 47 45 41 44 38 40 42 39 45 46 52 52 58 64 69 74 71 69 68 65
59 59 65 68 71 71 71 67 63 60 54 53 55 53 43 48 43 42 44 45 41 44 45 45 39 39 41 44 51 47 46 48 50 53 56 61 68 70 68 64 59 61 62
56 57 60 66 67 70 68 68 68 60 59 56 54 51 43 42 39 36 41 40 39 40 40 39 43 40 44 45 46 52 49 48 50 55 57 60 64 60 59 53 52 55 59
55 54 57 57 62 61 63 67 68 66 63 64 65 57 48 42 40 40 40 40 35 37 37 36 39 45 45 44 49 51 59 60 62 60 53 57 55 54 51 47 48 46 48
52 53 55 52 56 58 63 64 64 66 65 64 67 66 58 50 46 40 38 36 34 33 39 37 42 42 49 48 48 52 56 64 60 61 55 56 52 52 47 42 39 43 44
49 51 53 51 52 55 57 62 61 63 66 65 67 71 66 52 46 43 41 35 37 37 34 37 42 44 46 52 55 53 52 55 56 57 61 58 54 49 45 44 45 45 47
51 48 49 49 52 56 57 59 62 63 66 68 68 70 66 52 45 43 40 37 41 38 36 35 41 44 49 52 54 54 53 55 55 58 57 58 56 54 52 53 47 48 50
54 51 47 46 50 53 56 58 57 60 63 67 67 68 68 58 50 48 45 40 44 44 40 42 41 46 51 50 51 49 55 61 62 62 55 50 48 50 51 55 54 52 54

GFSSE_prec_cthk_147.txt.gz
RH
82 77 77 77 79 82 78 75 76 76 81 84 86 80 76 79 71 67 66 69 74 66 62 54 52 53 46 41 43 41 43 48 51 54 55 52 56 58 62 75 77 58 57
82 82 77 78 74 79 80 78 78 78 81 84 87 89 91 89 75 65 61 67 62 49 53 51 48 44 43 45 42 45 48 52 50 52 52 46 45 51 62 70 60 50 50
82 86 80 83 79 78 78 78 80 77 81 85 87 92 91 77 64 62 64 58 50 61 68 53 44 42 40 39 41 44 43 39 40 41 50 49 42 43 44 44 45 46 46
81 89 84 83 81 77 76 78 80 78 83 88 91 91 79 63 60 65 64 50 68 69 51 50 49 44 38 32 30 29 28 28 35 45 55 45 38 31 32 35 36 39 40
81 86 84 85 85 78 75 80 81 84 85 83 86 82 66 64 63 60 56 65 73 62 53 53 49 38 32 26 24 24 22 25 28 36 38 39 32 24 27 29 32 36 41
80 85 83 88 86 79 79 80 82 85 84 83 82 72 63 60 66 65 65 80 64 55 55 58 44 29 25 25 25 22 25 31 40 43 42 40 32 28 29 32 31 32 34
80 84 89 90 88 86 84 83 85 86 83 82 75 69 63 68 78 73 75 66 53 52 57 52 32 27 26 27 24 23 28 34 42 45 48 43 40 42 44 47 49 48 46
81 85 92 93 92 90 91 90 88 88 85 81 80 78 77 86 89 79 71 55 49 51 51 35 29 27 30 30 28 28 30 35 44 48 57 48 44 50 55 59 62 60 61
83 88 89 91 92 94 93 89 90 85 85 81 84 89 92 93 89 74 51 41 44 43 41 30 27 30 33 33 31 32 33 39 51 51 54 51 53 57 62 65 64 64 74
84 87 91 89 91 89 89 87 90 86 84 83 85 85 83 73 62 43 39 37 33 35 32 26 30 34 36 34 33 34 39 48 55 55 58 52 54 58 63 66 67 68 71
91 91 88 84 88 90 91 90 89 87 85 85 84 83 72 61 47 43 38 29 27 28 27 28 33 34 35 34 33 37 44 57 64 59 57 53 56 60 65 67 67 65 68
88 86 82 82 84 91 93 95 90 88 89 87 81 81 70 59 50 40 27 28 31 31 32 31 33 35 40 42 39 40 51 51 58 57 52 55 56 60 65 68 70 73 72
78 78 83 82 83 87 91 92 90 89 88 83 71 64 57 50 38 33 29 36 35 38 37 35 38 43 43 49 42 52 49 56 56 57 53 54 57 60 66 74 74 77 78
69 71 77 79 79 83 84 88 87 87 85 81 76 63 55 59 51 48 53 49 43 46 39 48 50 43 42 39 47 50 52 58 57 58 52 51 55 58 66 75 74 75 74
74 72 77 81 79 81 80 85 83 84 83 88 76 63 72 62 49 49 49 59 54 43 46 46 46 47 37 42 44 43 50 50 53 55 52 49 55 60 69 74 79 78 77
72 74 76 70 78 78 78 74 87 72 84 73 82 71 70 62 55 49 51 48 49 58 51 51 46 48 45 47 37 42 46 48 46 48 54 50 54 61 70 77 78 76 71
71 73 73 76 65 72 79 65 65 80 74 77 75 65 57 59 48 47 50 57 51 41 40 44 48 46 47 41 38 37 46 47 49 47 50 56 57 65 74 75 74 70 68
71 72 70 74 71 65 64 65 69 64 67 71 71 64 56 61 48 43 49 69 40 48 47 48 47 54 42 42 41 45 44 45 44 45 51 58 67 73 70 68 63 61 64
69 70 73 75 72 70 62 62 70 71 69 56 62 60 52 52 47 46 53 46 43 49 51 75 50 48 44 42 40 39 44 49 50 62 56 63 70 72 71 59 59 57 60
65 68 71 74 74 69 70 70 70 63 66 68 64 61 53 52 44 38 48 61 44 52 49 50 45 42 48 49 66 60 52 54 55 55 65 70 74 65 65 55 55 54 54
60 60 67 71 73 72 74 75 71 68 62 63 66 58 47 53 45 39 50 44 38 49 50 41 44 44 55 49 45 69 61 48 51 58 64 67 64 60 59 52 49 50 52
58 57 61 67 68 71 76 73 72 68 67 65 65 55 48 49 43 42 39 47 45 49 40 39 37 48 48 47 48 50 72 81 78 76 55 55 54 58 61 56 44 44 52
56 55 55 57 61 63 67 67 70 70 70 63 72 64 51 47 42 41 45 40 47 36 45 40 37 41 51 57 43 47 51 76 56 73 64 55 48 51 49 44 62 44 52
54 52 55 53 54 59 60 66 67 70 69 69 68 68 63 53 51 49 44 42 37 44 43 41 38 42 42 50 57 55 49 50 55 53 60 80 58 58 56 49 61 56 51
52 51 51 51 52 53 56 60 63 64 67 67 68 69 69 66 49 48 47 45 41 42 45 38 42 40 48 49 58 58 57 54 56 56 57 62 56 53 52 57 55 62 63
51 48 48 45 45 51 52 54 59 62 61 68 69 73 67 64 52 46 48 40 42 48 46 41 39 39 41 50 53 54 54 56 62 59 63 50 51 56 54 51 55 56 67